PA3DZX-13 Weather Reports


Display with metric or nautical units.
time (UTC)temp
F
wind
direction
speed
MPH
gust
MPH
rain 1hr
in
rain 24hr
in
rain mn
in
humidity
%
barometer
mb
20260506171020 50 64 6.0 13.0 0.00 0.00 0.00 70 1009.7
20260506165520 50 61 8.0 17.0 0.00 0.00 0.00 73 1009.8
20260506164020 50 47 8.0 15.0 0.00 0.00 0.00 75 1009.8
20260506162520 50 48 8.0 17.0 0.00 0.00 0.00 75 1009.9
20260506161019 50 42 13.0 20.0 0.00 0.00 0.00 75 1009.9
20260506155519 50 30 13.0 22.0 0.00 0.00 0.00 76 1009.8
20260506154018 48 32 15.0 22.0 0.00 0.00 0.00 79 1009.7
20260506152518 48 39 11.0 17.0 0.00 0.00 0.00 82 1009.5
20260506151018 48 33 11.0 17.0 0.00 0.00 0.00 81 1009.4
20260506145518 48 25 15.0 20.0 0.00 0.00 0.00 81 1009.5
20260506144017 50 30 13.0 20.0 0.00 0.00 0.00 83 1009.3
20260506142517 48 25 8.0 15.0 0.00 0.00 0.00 88 1009.3
20260506141017 48 25 8.0 15.0 0.00 0.00 0.00 88 1009.3
20260506135516 48 19 11.0 17.0 0.00 0.00 0.00 88 1009.2
20260506134017 48 19 11.0 17.0 0.00 0.00 0.00 89 1009.2
20260506132516 48 21 11.0 17.0 0.00 0.00 0.00 86 1009.2
20260506131014 48 20 11.0 15.0 0.00 0.00 0.00 87 1009.2
20260506125514 48 22 13.0 17.0 0.00 0.00 0.00 86 1009.1
20260506124014 48 23 11.0 20.0 0.00 0.00 0.00 87 1009.0
20260506122514 48 16 11.0 15.0 0.00 0.00 0.00 86 1008.9
20260506121013 48 8 11.0 15.0 0.00 0.00 0.00 86 1008.8
20260506115513 48 15 8.0 15.0 0.00 0.00 0.00 87 1008.7
20260506114013 48 14 8.0 15.0 0.00 0.00 0.00 89 1008.6
20260506112513 48 20 8.0 17.0 0.00 0.00 0.00 89 1008.5
20260506111012 48 12 6.0 13.0 0.00 0.00 0.00 93 1008.5
20260506105512 46 17 8.0 13.0 0.00 0.00 0.00 93 1008.5
20260506104011 46 21 8.0 13.0 0.00 0.00 0.00 90 1008.4
20260506102511 46 21 8.0 15.0 0.00 0.00 0.00 92 1008.3
20260506101011 46 23 11.0 17.0 0.00 0.00 0.00 92 1008.3
20260506095510 46 23 8.0 13.0 0.01 0.00 0.00 94 1008.2
20260506094010 46 26 8.0 11.0 0.01 0.00 0.00 90 1008.2
20260506092510 46 27 8.0 15.0 0.02 0.00 0.00 92 1008.1
20260506091009 46 25 6.0 13.0 0.03 0.00 0.00 92 1008.1
20260506085509 46 20 6.0 13.0 0.02 0.00 0.00 92 1008.1
20260506084008 44 18 8.0 13.0 0.03 0.00 0.00 91 1008.0
20260506082508 44 16 6.0 11.0 0.01 0.00 0.00 91 1007.9
20260506081007 44 18 6.0 11.0 0.01 0.00 0.00 91 1007.9
20260506072506 44 41 11.0 17.0 0.01 0.00 0.00 92 1007.6
20260506071005 44 32 13.0 17.0 0.02 0.00 0.00 92 1007.5
20260506062503 46 31 13.0 22.0 0.01 0.00 0.00 91 1007.3
20260506061003 46 27 11.0 15.0 0.01 0.00 0.00 94 1007.2
20260506051001 46 15 8.0 11.0 0.00 0.00 0.00 96 1007.1
20260506044000 46 1 6.0 11.0 0.01 0.00 0.00 97 1007.1
20260506042500 46 355 6.0 11.0 0.01 0.00 0.00 98 1007.1
20260506040959 46 356 6.0 8.0 0.05 0.00 0.00 98 1007.2
20260506035459 46 352 4.0 6.0 0.06 0.00 0.00 98 1007.4
20260506033959 46 351 4.0 8.0 0.06 0.00 0.00 99 1007.4
20260506032459 46 354 4.0 8.0 0.07 0.00 0.00 98 1007.5
20260506030959 46 4 6.0 11.0 0.05 0.00 0.00 98 1007.6
20260506025500 46 2 6.0 11.0 0.05 0.00 0.00 98 1007.6
20260506023958 48 7 6.0 13.0 0.03 0.00 0.00 98 1007.7
20260506022458 48 13 6.0 13.0 0.03 0.00 0.00 98 1007.8
20260506020958 48 14 6.0 11.0 0.03 0.00 0.00 98 1007.9
20260506015458 48 11 6.0 11.0 0.03 0.00 0.00 98 1008.0
20260506013957 48 12 6.0 13.0 0.03 0.00 0.00 98 1008.1
20260506012457 48 9 8.0 13.0 0.02 0.00 0.00 98 1008.1
20260506010957 48 7 8.0 13.0 0.01 0.00 0.00 97 1008.3
20260506005457 46 15 6.0 11.0 0.00 0.00 0.00 97 1008.4
20260506003957 48 14 8.0 13.0 0.00 0.00 0.00 97 1008.5
20260506002457 48 15 8.0 13.0 0.00 0.00 0.00 97 1008.5
20260506000956 46 13 6.0 13.0 0.00 0.00 0.00 97 1008.8
20260505235456 46 16 6.0 13.0 0.00 0.00 0.00 97 1008.8
20260505233955 46 13 8.0 15.0 0.00 0.00 0.00 97 1008.8
20260505232456 46 11 11.0 15.0 0.00 0.00 0.00 96 1009.0
20260505230955 48 12 11.0 15.0 0.00 0.00 0.00 95 1009.1
20260505225455 48 13 8.0 13.0 0.00 0.00 0.00 95 1009.1
20260505223955 48 9 8.0 13.0 0.00 0.00 0.00 95 1009.1
20260505222455 48 9 8.0 13.0 0.00 0.00 0.00 94 1009.2
20260505220954 48 9 11.0 15.0 0.00 0.00 0.00 92 1009.3
20260505215453 48 7 8.0 15.0 0.00 0.00 0.00 91 1009.3
20260505213953 50 9 8.0 15.0 0.00 0.00 0.00 88 1009.5
20260505212453 50 18 11.0 17.0 0.00 0.00 0.00 87 1009.5
20260505210953 50 7 11.0 20.0 0.00 0.00 0.00 85 1009.6
20260505205452 50 12 8.0 15.0 0.00 0.00 0.00 84 1009.5
20260505203951 50 19 11.0 15.0 0.00 0.00 0.00 83 1009.5
20260505202451 50 14 8.0 15.0 0.00 0.00 0.00 82 1009.5
20260505200951 51 10 8.0 15.0 0.00 0.00 0.00 82 1009.4
20260505195450 51 11 6.0 13.0 0.00 0.00 0.00 82 1009.4
20260505193949 51 10 6.0 11.0 0.00 0.00 0.00 83 1009.3
20260505192448 51 1 6.0 11.0 0.00 0.00 0.00 82 1009.2
20260505190948 51 5 6.0 11.0 0.00 0.00 0.00 83 1009.1
20260505185447 51 4 6.0 11.0 0.00 0.00 0.00 83 1009.2
20260505183947 51 4 6.0 11.0 0.00 0.00 0.00 83 1009.2
20260505182446 51 5 6.0 8.0 0.00 0.00 0.00 84 1009.2
20260505180945 51 12 4.0 8.0 0.00 0.00 0.00 85 1009.2
20260505175445 51 14 6.0 8.0 0.00 0.00 0.00 85 1009.2
20260505173944 51 13 6.0 8.0 0.00 0.00 0.00 86 1009.3
20260505172444 51 6 6.0 8.0 0.00 0.00 0.00 86 1009.3